Location: Eschertshofen
(49.3064°N, 11.5756°E)
Time: 01:12:25
(UTC+00:00)

Cosmos 2142 Rocket - Pass Details

Date: 18 September 2020
Orbit: 952 x 1005 km, 82.9° (Epoch: 30 October)

Event Time Altitude Azimuth Distance (km) Brightness Sun altitude
Exits shadow 20:21:19 67° 185° (S) 1,060 4.4 -27.9°
Maximum altitude 20:22:14 89° 98° (E) 990 4.4 -28.1°
Drops below altitude 10° 20:28:31 10° 10° (N) 2,730 7.2 -28.8°
Sets 20:31:01 0° 10° (N) 3,674 7.9 -29.1°
